Regional Weather Roundup
Issued by NWS

Home | Current Version | Previous Version | Graphics & Text | Print | Product List | Glossary On
Versions: 1 2 3 4 5 6 7 8 9 10 11 12 13 14 15 16 17 18 19 20 21 22 23 24 25 26 27 28 29 30 31 32 33 34 35 36 37 38 39 40 41 42 43 44 45 46 47 48 49 50
000
ASUS43 KBIS 291910
RWRND

NORTH DAKOTA REGIONAL WEATHER ROUNDUP
NATIONAL WEATHER SERVICE BISMARCK ND
200 PM CDT FRI MAY 29 2015

NOTE: "FAIR" INDICATES FEW OR NO CLOUDS BELOW 12,000 FEET WITH NO
SIGNIFICANT WEATHER AND/OR OBSTRUCTIONS TO VISIBILITY.


NDZ001>003-009>011-017-292000-
NORTHWEST NORTH DAKOTA

CITY           SKY/WX    TMP DP  RH WIND       PRES   REMARKS
WILLISTON      SUNNY     54  33  45 NE9       30.32S
MINOT          CLOUDY    48  34  58 NW14      30.30R
MINOT AFB      CLOUDY    51  38  60 N9        30.29S
$$

NDZ018>021-031>035-040>046-292000-
SOUTHWEST NORTH DAKOTA

CITY           SKY/WX    TMP DP  RH WIND       PRES   REMARKS
BISMARCK       CLOUDY    53  34  48 N17G25    30.26S
DICKINSON      PTSUNNY   51  34  52 N10       30.27F
GARRISON         N/A     50  34  54 N9G21     30.28S
HETTINGER ARPT CLOUDY    50  36  58 N12G28    30.28S
$$

NDZ004>008-012>016-024-026-027-054-292000-
NORTHEAST NORTH DAKOTA

CITY           SKY/WX    TMP DP  RH WIND       PRES   REMARKS
GRAND FORKS    PTSUNNY   50  39  66 N25G32    30.18F
GRND FRKS AFB  PTSUNNY   52  37  57 N21G30    30.19S
DEVILS LAKE    CLOUDY    50  34  53 N20G26    30.23S
$$

NDZ022-023-025-028>030-036>039-047>053-292000-
SOUTHEAST NORTH DAKOTA

CITY           SKY/WX    TMP DP  RH WIND       PRES   REMARKS
FARGO          CLOUDY    49  40  71 N24G35    30.15R
JAMESTOWN      PTSUNNY   53  39  59 N23G33    30.18S
$$




USA.gov is the U.S. government's official web portal to all federal, state and local government web resources and services.